Location: Codford Saint Peter
(51.1597°N, 2.0531°W)
Time: 03:53:49
(UTC+00:00)

Meteor 1-22 Rocket - Pass Details

Date: 18 September 2020
Orbit: 786 x 941 km, 81.2° (Epoch: 19 October)

Event Time Altitude Azimuth Distance (km) Brightness Sun altitude
Exits shadow 20:43:06 46° 147° (SSE) 1,197 4.5 -22.7°
Maximum altitude 20:44:35 60° 96° (E) 1,039 4.3 -22.9°
Drops below altitude 10° 20:50:31 10° 18° (NNE) 2,644 7.0 -23.6°
Sets 20:53:04 0° 15° (NNE) 3,604 7.7 -24.0°
